Regional Weather Roundup
Issued by NWS

Home | Current Version | Previous Version | Graphics & Text | Print | Product List | Glossary On
Versions: 1 2 3 4 5 6 7 8 9 10 11 12 13 14 15 16 17 18 19 20 21 22 23 24 25 26 27 28 29 30 31 32 33 34 35 36 37 38 39 40 41 42 43 44 45 46 47 48 49 50
000
ASUS45 KSLC 231910
RWRUT

UTAH REGIONAL WEATHER ROUNDUP
NATIONAL WEATHER SERVICE SALT LAKE CITY UT
100 PM MDT SAT AUG 23 2014

UTZ001>011-023>025-232000-

NORTHERN UTAH

CITY           SKY/WX    TMP DP  RH WIND       PRES   REMARKS
HILL AFB       PTSUNNY   63  52  67 W12       30.07F THUNDER
LOGAN          PTSUNNY   65  47  52 VRB5      30.05F
OGDEN          PTSUNNY   64  51  62 W8        30.06S
PROVO AIRPORT  MOSUNNY   64  45  48 VRB5      30.09F
SALT LAKE CITY PTSUNNY   67  48  50 VRB7      30.05F
VERNAL         PTSUNNY   57  49  74 S5        30.10F
WENDOVER       PTSUNNY   70  43  37 E6        30.08S
HEBER CITY     MOSUNNY   63  45  51 CALM      30.09F
WEST JORDAN    MOSUNNY   66  50  55 CALM      30.08F

$$

UTZ012>022-026-027-232000-

SOUTHERN UTAH

CITY           SKY/WX    TMP DP  RH WIND       PRES   REMARKS
BRYCE CANYON   CLOUDY    62  46  55 NW8       30.21S
CEDAR CITY     PTSUNNY   74  48  39 VRB6      30.09F
MILFORD        MOSUNNY   69  56  62 N7        30.07F
MOAB/CYNLANDS  PTSUNNY   65  48  54 SW5       30.07F
PRICE          SUNNY     61  45  55 VRB5      30.12F
ST GEORGE      CLEAR     84  52  32 W9        29.97F
KANAB            N/A     79  50  36 SW15G29   30.11F

$$

REGIONAL REPORTS     COLORADO/ARIZONA

CITY           SKY/WX    TMP DP  RH WIND       PRES   REMARKS
CRAIG, CO      LGT RAIN  49  46  90 W15       30.17R
GRAND JUNCTION CLOUDY    58  54  86 NW3       30.12S
RIFLE          CLOUDY    57  52  83 NE6       30.14R
MONTROSE       LGT RAIN  57  52  83 N18G24    30.16R
CORTEZ         SUNNY     73  52  47 S13       30.14F
PAGE, AZ       MOSUNNY   81  48  31 W3        30.02F
GRAND CANYON   SUNNY     70  48  45 SW16      30.21F
KINGMAN        SUNNY     84  44  24 SW14G22   30.03F
FLAGSTAFF      PTSUNNY   65  50  58 S10G16    30.25F

$$

REGIONAL REPORTS    NEVADA/IDAHO/WYOMING

CITY           SKY/WX    TMP DP  RH WIND       PRES   REMARKS
LAS VEGAS, NV  MOSUNNY   90  45  21 SW7       29.87F
ELY            SUNNY     68  36  30 W12       30.15F
ELKO           MOSUNNY   70  31  23 NW9G20    30.12S
POCATELLO, ID  PTSUNNY   64  49  57 W20G25    30.08S
BURLEY         MOSUNNY   64  46  52 W14G23    30.07S
EVANSTON, WY   PTSUNNY   55  36  48 NW17G23   30.13S
ROCK SPRINGS   CLOUDY    54  41  61 W21G29    30.10F

$$



USA.gov is the U.S. government's official web portal to all federal, state and local government web resources and services.